When you browse on this site, cookies collect data to enhance your experience and personalize the content and advertising you see.
Visit our Privacy Policy to learn more. By continuing to use the site, you agree to this use of cookies and data.
  • In Czech Republic
  • List of Countries
  • For 7 days
  • Water Temperature
  • Satellite Maps
  • Weather Map
  • Weather Widgets
  • user-avatar
    Login

    Hourly Weather Mission Bend

    Today, 21 April, Sunday

    Time Temperature Precipitation Wind Pressure Humidity
    00:00 +17°C° 0 mm 3 mps 760 mmHg 62%
    01:00 +17°C° 0 mm 3 mps 760 mmHg 65%
    02:00 +17°C° 0 mm 3 mps 760 mmHg 68%
    03:00 +16°C° 0 mm 3 mps 760 mmHg 71%
    04:00 +16°C° 0 mm 3 mps 760 mmHg 73%
    05:00 +16°C° 0 mm 3 mps 760 mmHg 75%
    06:00 +16°C° 0 mm 3 mps 760 mmHg 78%
    07:00 +19°C° 0 mm 4 mps 760 mmHg 72%
    08:00 +21°C° 0 mm 5 mps 761 mmHg 66%
    09:00 +23°C° 0 mm 6 mps 761 mmHg 61%
    10:00 +26°C° 0 mm 6 mps 761 mmHg 58%
    11:00 +27°C° 0 mm 6 mps 761 mmHg 55%
    12:00 +28°C° 0 mm 6 mps 761 mmHg 51%
    13:00 +28°C° 0 mm 6 mps 761 mmHg 51%
    14:00 +29°C° 0 mm 6 mps 760 mmHg 52%
    15:00 +29°C° 0 mm 6 mps 760 mmHg 52%
    16:00 +27°C° 0 mm 6 mps 760 mmHg 56%
    17:00 +26°C° 0 mm 5 mps 759 mmHg 61%
    18:00 +25°C° 0 mm 5 mps 759 mmHg 66%
    19:00 +23°C° 0 mm 5 mps 760 mmHg 71%
    20:00 +21°C° 0 mm 4 mps 760 mmHg 76%
    21:00 +20°C° 0 mm 4 mps 761 mmHg 82%
    22:00 +20°C° 0 mm 4 mps 761 mmHg 83%
    23:00 +20°C° 0 mm 4 mps 761 mmHg 85%

    Tomorrow, 22 April, Monday

    Time Temperature Precipitation Wind Pressure Humidity
    00:00 +19°C° 0 mm 4 mps 761 mmHg 87%
    01:00 +19°C° 0 mm 3 mps 760 mmHg 88%
    02:00 +19°C° 0 mm 3 mps 760 mmHg 89%
    03:00 +19°C° 0 mm 3 mps 760 mmHg 90%
    04:00 +19°C° 0 mm 3 mps 760 mmHg 90%
    05:00 +19°C° 0 mm 3 mps 760 mmHg 90%
    06:00 +19°C° 0 mm 3 mps 760 mmHg 91%
    07:00 +21°C° 0 mm 4 mps 760 mmHg 85%
    08:00 +22°C° 0 mm 5 mps 761 mmHg 78%
    09:00 +25°C° 0 mm 5 mps 761 mmHg 72%
    10:00 +26°C° 0 mm 6 mps 761 mmHg 68%
    11:00 +27°C° 0 mm 6 mps 761 mmHg 63%
    12:00 +29°C° 0 mm 6 mps 761 mmHg 59%
    13:00 +29°C° 0 mm 6 mps 760 mmHg 59%
    14:00 +29°C° 0 mm 7 mps 760 mmHg 59%
    15:00 +29°C° 0 mm 7 mps 759 mmHg 58%
    16:00 +27°C° 0 mm 6 mps 759 mmHg 63%
    17:00 +26°C° 0 mm 5 mps 759 mmHg 67%
    18:00 +25°C° 0 mm 5 mps 759 mmHg 71%
    19:00 +23°C° 0 mm 4 mps 760 mmHg 75%
    20:00 +22°C° 0 mm 4 mps 760 mmHg 79%
    21:00 +21°C° 0 mm 3 mps 761 mmHg 83%
    22:00 +21°C° 0 mm 3 mps 761 mmHg 85%
    23:00 +21°C° 0 mm 3 mps 760 mmHg 87%

    Day after tomorrow, 23 April, Tuesday

    Time Temperature Precipitation Wind Pressure Humidity
    00:00 +21°C° 0 mm 4 mps 760 mmHg 88%
    01:00 +21°C° 0 mm 4 mps 759 mmHg 87%
    02:00 +21°C° 0 mm 5 mps 759 mmHg 86%
    03:00 +22°C° 0 mm 6 mps 758 mmHg 85%
    04:00 +22°C° 0 mm 6 mps 758 mmHg 84%
    05:00 +22°C° 0 mm 6 mps 758 mmHg 83%
    06:00 +22°C° 0 mm 6 mps 758 mmHg 82%
    07:00 +23°C° 0 mm 5 mps 759 mmHg 79%
    08:00 +25°C° 0 mm 5 mps 759 mmHg 77%
    09:00 +25°C° 0 mm 5 mps 760 mmHg 74%
    10:00 +25°C° 0.1 mm 5 mps 760 mmHg 75%
    11:00 +25°C° 0.1 mm 5 mps 760 mmHg 76%
    12:00 +25°C° 0.1 mm 5 mps 760 mmHg 77%
    13:00 +25°C° 0.2 mm 4 mps 760 mmHg 78%
    14:00 +25°C° 0.2 mm 4 mps 759 mmHg 78%
    15:00 +25°C° 0.2 mm 4 mps 759 mmHg 79%
    16:00 +25°C° 0.1 mm 4 mps 758 mmHg 79%
    17:00 +25°C° 0.1 mm 4 mps 758 mmHg 78%
    18:00 +25°C° 0.1 mm 4 mps 758 mmHg 78%
    19:00 +23°C° 0 mm 4 mps 758 mmHg 81%
    20:00 +22°C° 0 mm 4 mps 758 mmHg 83%
    21:00 +21°C° 0 mm 4 mps 759 mmHg 86%
    22:00 +21°C° 0 mm 4 mps 758 mmHg 87%
    23:00 +21°C° 0 mm 3 mps 758 mmHg 87%

    24 April, Wednesday

    Time Temperature Precipitation Wind Pressure Humidity
    00:00 +21°C° 0 mm 3 mps 758 mmHg 88%
    01:00 +21°C° 0 mm 3 mps 758 mmHg 88%
    02:00 +21°C° 0 mm 3 mps 758 mmHg 89%
    03:00 +21°C° 0 mm 2 mps 757 mmHg 90%
    04:00 +21°C° 0 mm 2 mps 757 mmHg 90%
    05:00 +21°C° 0 mm 2 mps 758 mmHg 91%
    06:00 +21°C° 0 mm 2 mps 758 mmHg 92%
    07:00 +22°C° 0.1 mm 3 mps 758 mmHg 86%
    08:00 +25°C° 0.1 mm 4 mps 758 mmHg 80%
    09:00 +26°C° 0.1 mm 4 mps 759 mmHg 74%
    10:00 +27°C° 0.1 mm 5 mps 758 mmHg 71%
    11:00 +28°C° 0.1 mm 6 mps 757 mmHg 67%
    12:00 +28°C° 0.1 mm 7 mps 757 mmHg 63%
    13:00 +28°C° 0.1 mm 7 mps 756 mmHg 64%
    14:00 +29°C° 0.1 mm 8 mps 755 mmHg 64%
    15:00 +29°C° 0.1 mm 8 mps 754 mmHg 64%
    16:00 +28°C° 0 mm 7 mps 754 mmHg 67%
    17:00 +27°C° 0 mm 7 mps 754 mmHg 70%
    18:00 +27°C° 0 mm 6 mps 754 mmHg 73%
    19:00 +26°C° 0 mm 5 mps 755 mmHg 77%
    20:00 +25°C° 0 mm 5 mps 755 mmHg 81%
    21:00 +25°C° 0 mm 4 mps 756 mmHg 85%
    22:00 +23°C° 2.8 mm 4 mps 756 mmHg 86%
    23:00 +23°C° 2.8 mm 4 mps 756 mmHg 88%

    25 April, Thursday

    Time Temperature Precipitation Wind Pressure Humidity
    00:00 +22°C° 2.8 mm 4 mps 756 mmHg 89%
    01:00 +21°C° 0 mm 4 mps 755 mmHg 90%
    02:00 +20°C° 0 mm 4 mps 755 mmHg 91%
    03:00 +19°C° 0 mm 4 mps 754 mmHg 92%
    04:00 +18°C° 0.2 mm 4 mps 755 mmHg 91%
    05:00 +18°C° 0.2 mm 3 mps 755 mmHg 89%
    06:00 +17°C° 0.2 mm 3 mps 756 mmHg 88%
    07:00 +19°C° 0 mm 3 mps 756 mmHg 83%
    08:00 +20°C° 0 mm 3 mps 757 mmHg 77%
    09:00 +22°C° 0 mm 4 mps 757 mmHg 72%
    10:00 +25°C° 0 mm 4 mps 757 mmHg 66%
    11:00 +26°C° 0 mm 4 mps 757 mmHg 61%
    12:00 +28°C° 0 mm 4 mps 757 mmHg 55%
    13:00 +28°C° 0 mm 5 mps 757 mmHg 55%
    14:00 +28°C° 0 mm 5 mps 756 mmHg 55%
    15:00 +29°C° 0 mm 5 mps 756 mmHg 55%
    16:00 +28°C° 0 mm 5 mps 756 mmHg 58%
    17:00 +27°C° 0 mm 4 mps 756 mmHg 61%
    18:00 +26°C° 0 mm 4 mps 756 mmHg 65%
    19:00 +25°C° 0 mm 4 mps 757 mmHg 66%
    20:00 +24°C° 0 mm 3 mps 757 mmHg 68%
    21:00 +22°C° 0 mm 3 mps 758 mmHg 70%
    22:00 +21°C° 0 mm 3 mps 758 mmHg 71%
    23:00 +20°C° 0 mm 3 mps 758 mmHg 72%

    26 April, Friday

    Time Temperature Precipitation Wind Pressure Humidity
    00:00 +20°C° 0 mm 3 mps 758 mmHg 72%
    01:00 +19°C° 0 mm 3 mps 758 mmHg 72%
    02:00 +19°C° 0 mm 3 mps 758 mmHg 71%
    03:00 +18°C° 0 mm 4 mps 757 mmHg 70%
    04:00 +18°C° 0 mm 4 mps 758 mmHg 72%
    05:00 +17°C° 0 mm 4 mps 758 mmHg 74%
    06:00 +17°C° 0 mm 4 mps 758 mmHg 75%
    07:00 +18°C° 0 mm 4 mps 759 mmHg 74%
    08:00 +20°C° 0 mm 5 mps 759 mmHg 73%
    09:00 +21°C° 0 mm 5 mps 760 mmHg 72%
    10:00 +22°C° 0 mm 5 mps 760 mmHg 68%
    11:00 +24°C° 0 mm 6 mps 759 mmHg 65%
    12:00 +26°C° 0 mm 6 mps 759 mmHg 61%
    13:00 +26°C° 0 mm 6 mps 759 mmHg 60%
    14:00 +27°C° 0 mm 6 mps 759 mmHg 59%
    15:00 +27°C° 0 mm 6 mps 758 mmHg 58%
    16:00 +27°C° 0 mm 5 mps 758 mmHg 61%
    17:00 +26°C° 0 mm 5 mps 758 mmHg 64%
    18:00 +25°C° 0 mm 4 mps 758 mmHg 67%
    19:00 +23°C° 0 mm 4 mps 759 mmHg 69%
    20:00 +24°C° 0 mm 3 mps 759 mmHg 71%
    21:00 +22°C° 0 mm 3 mps 760 mmHg 74%
    22:00 +21°C° 0 mm 3 mps 760 mmHg 76%
    23:00 +21°C° 0 mm 2 mps 760 mmHg 79%
    Show more